sat.trackr.live / text

‹ back to catalog

STARLINK-2534

NORAD 48311 · 2021-036AM

PAYLOAD ACTIVE UNKNOWN

§ Identity

Operator
Country
US
Launch date
2021-04-29
Launch site
AFETR
Launch vehicle
Mass (kg)
RCS (m²)

Purposes: comms

External: N2YO · Heavens-Above · Gunter

§ Orbital elements

Epoch: 2026-09-09T04:06:54.016128Z

Period
94.01 min
Inclination
53.1595°
Eccentricity
0.0001214
Mean motion
15.31707346 rev/d
Perigee alt
469.9 km
Apogee alt
471.5 km
Semi-major
6,848.9 km
B*
3.4983e-5
RAAN
314.7889°
Arg perigee
90.9454°
Mean anomaly
269.1687°
Rev number
29,633

§ Raw data

STARLINK-25341 48311U 21036AM  26252.17145852  .00000721  00000+0  34983-4 0  99992 48311  53.1595 314.7889 0001214  90.9454 269.1687 15.31707346296335

JSON: /api/v1/satellites/48311 · /tle

For live sub-satellite position, see the globe view (requires WebGL).

§ Visibility from observer

Set your observer location to see the next 7 days of passes ≥ 10°. The values pass through the URL so the page stays shareable.

No JS? Fill the form by hand. The geolocation button needs JavaScript.